| time (UTC) | temp F | wind direction | speed knots | gust knots | rain 1hr in | rain 24hr in | rain mn in | humidity % | barometer mb |
| 20260831163104 | 73 | 197 | 1.7 | 4.3 | 0.00 | 0.01 | 0.00 | 41 | 1019.9 |
| 20260831161559 | 72 | 144 | 0.9 | 7.8 | 0.00 | 0.01 | 0.00 | 45 | 1020.1 |
| 20260831160049 | 72 | 61 | 2.6 | 5.2 | 0.00 | 0.01 | 0.00 | 46 | 1020.1 |
| 20260831154618 | 72 | 204 | 1.7 | 5.2 | 0.00 | 0.01 | 0.00 | 47 | 1020.2 |
| 20260831153059 | 70 | 355 | 0.0 | 6.1 | 0.00 | 0.01 | 0.00 | 48 | 1020.4 |
| 20260831151552 | 70 | 76 | 1.7 | 4.3 | 0.00 | 0.01 | 0.00 | 50 | 1020.6 |
| 20260831150047 | 69 | 296 | 3.5 | 6.1 | 0.00 | 0.01 | 0.00 | 54 | 1020.6 |
| 20260831144607 | 68 | 343 | 2.6 | 7.8 | 0.00 | 0.01 | 0.00 | 55 | 1020.6 |
| 20260831143101 | 67 | 345 | 2.6 | 7.0 | 0.00 | 0.01 | 0.00 | 55 | 1020.7 |
| 20260831141558 | 67 | 360 | 3.5 | 7.0 | 0.00 | 0.01 | 0.00 | 55 | 1020.9 |
| 20260831140058 | 67 | 315 | 1.7 | 5.2 | 0.00 | 0.01 | 0.00 | 61 | 1020.8 |
| 20260831134551 | 66 | 290 | 2.6 | 7.0 | 0.00 | 0.01 | 0.00 | 62 | 1020.8 |
| 20260831133059 | 66 | 331 | 1.7 | 4.3 | 0.00 | 0.01 | 0.00 | 63 | 1020.8 |
| 20260831131550 | 65 | 294 | 1.7 | 6.1 | 0.00 | 0.01 | 0.00 | 65 | 1020.7 |
| 20260831130105 | 64 | 330 | 1.7 | 5.2 | 0.00 | 0.01 | 0.00 | 67 | 1020.5 |
| 20260831124547 | 64 | 323 | 1.7 | 3.5 | 0.00 | 0.01 | 0.00 | 70 | 1020.6 |
| 20260831123101 | 63 | 302 | 1.7 | 4.3 | 0.00 | 0.01 | 0.00 | 72 | 1020.6 |
| 20260831121553 | 62 | 319 | 1.7 | 4.3 | 0.00 | 0.01 | 0.00 | 74 | 1020.4 |
| 20260831120055 | 61 | 302 | 1.7 | 4.3 | 0.00 | 0.01 | 0.00 | 78 | 1020.3 |
| 20260831114605 | 60 | 336 | 0.9 | 3.5 | 0.00 | 0.01 | 0.00 | 83 | 1020.2 |
| 20260831113100 | 58 | 0 | 0.0 | 1.7 | 0.00 | 0.01 | 0.00 | 87 | 1020.1 |
| 20260831111553 | 57 | 0 | 0.0 | 1.7 | 0.00 | 0.01 | 0.00 | 90 | 1020.1 |
| 20260831110051 | 56 | 0 | 0.0 | 1.7 | 0.00 | 0.01 | 0.00 | 94 | 1020.1 |
| 20260831104559 | 54 | 0 | 0.0 | 0.0 | 0.00 | 0.01 | 0.00 | 93 | 1020.1 |
| 20260831103047 | 54 | 0 | 0.0 | 0.9 | 0.00 | 0.01 | 0.00 | 91 | 1019.9 |
| 20260831101555 | 54 | 0 | 0.0 | 0.9 | 0.00 | 0.01 | 0.00 | 91 | 1019.6 |
| 20260831100108 | 55 | 0 | 0.0 | 0.9 | 0.00 | 0.01 | 0.00 | 90 | 1019.6 |
| 20260831094600 | 55 | 0 | 0.0 | 0.0 | 0.00 | 0.01 | 0.00 | 89 | 1019.4 |
| 20260831093058 | 55 | 0 | 0.0 | 0.0 | 0.00 | 0.01 | 0.00 | 87 | 1019.3 |
| 20260831091601 | 56 | 0 | 0.0 | 3.5 | 0.00 | 0.01 | 0.00 | 85 | 1019.2 |
| 20260831090053 | 56 | 0 | 0.0 | 0.9 | 0.00 | 0.01 | 0.00 | 86 | 1019.1 |
| 20260831084547 | 56 | 0 | 0.0 | 0.9 | 0.00 | 0.01 | 0.00 | 86 | 1018.9 |
| 20260831083055 | 57 | 0 | 0.0 | 0.9 | 0.00 | 0.01 | 0.00 | 84 | 1018.7 |
| 20260831081554 | 58 | 0 | 0.0 | 0.9 | 0.00 | 0.01 | 0.00 | 82 | 1018.5 |
| 20260831080049 | 58 | 304 | 0.0 | 3.5 | 0.00 | 0.01 | 0.00 | 81 | 1018.4 |
| 20260831074547 | 59 | 0 | 0.9 | 5.2 | 0.00 | 0.01 | 0.00 | 82 | 1018.4 |
| 20260831073103 | 58 | 30 | 2.6 | 7.0 | 0.00 | 0.01 | 0.00 | 87 | 1018.3 |
| 20260831071552 | 58 | 0 | 0.0 | 3.5 | 0.00 | 0.01 | 0.00 | 90 | 1018.3 |
| 20260831070049 | 59 | 0 | 0.9 | 3.5 | 0.00 | 0.01 | 0.00 | 90 | 1018.3 |
| 20260831064558 | 59 | 0 | 0.0 | 3.5 | 0.00 | 0.01 | 0.00 | 90 | 1018.1 |
| 20260831063052 | 59 | 5 | 0.0 | 3.5 | 0.00 | 0.01 | 0.00 | 91 | 1018.0 |
| 20260831061548 | 59 | 0 | 0.0 | 2.6 | 0.00 | 0.01 | 0.00 | 90 | 1018.0 |
| 20260831060111 | 59 | 0 | 0.0 | 3.5 | 0.00 | 0.01 | 0.00 | 88 | 1017.9 |
| 20260831054558 | 59 | 291 | 0.0 | 0.9 | 0.00 | 0.01 | 0.00 | 88 | 1017.8 |
| 20260831053055 | 59 | 0 | 0.0 | 1.7 | 0.00 | 0.01 | 0.00 | 86 | 1017.7 |
| 20260831051557 | 59 | 0 | 0.0 | 1.7 | 0.00 | 0.01 | 0.00 | 84 | 1017.7 |
| 20260831050055 | 60 | 0 | 0.0 | 1.7 | 0.00 | 0.01 | 0.00 | 82 | 1017.5 |
| 20260831044556 | 60 | 328 | 0.0 | 1.7 | 0.00 | 0.01 | 0.00 | 82 | 1017.5 |
| 20260831043048 | 61 | 0 | 0.0 | 2.6 | 0.00 | 0.01 | 0.00 | 83 | 1017.6 |
| 20260831041643 | 61 | 0 | 0.0 | 2.6 | 0.00 | 0.01 | 0.00 | 84 | 1017.6 |
| 20260831040051 | 62 | 0 | 0.9 | 3.5 | 0.00 | 0.01 | 0.00 | 83 | 1017.4 |
| 20260831034548 | 63 | 331 | 0.0 | 2.6 | 0.00 | 0.01 | 0.01 | 83 | 1017.7 |
| 20260831033100 | 64 | 0 | 0.0 | 3.5 | 0.00 | 0.01 | 0.01 | 80 | 1017.5 |
| 20260831031552 | 66 | 317 | 1.7 | 7.8 | 0.00 | 0.01 | 0.01 | 82 | 1017.6 |
| 20260831030054 | 66 | 329 | 5.2 | 11.3 | 0.00 | 0.01 | 0.01 | 86 | 1017.7 |
| 20260831024603 | 67 | 340 | 3.5 | 8.7 | 0.01 | 0.01 | 0.01 | 90 | 1017.5 |
| 20260831023057 | 67 | 304 | 2.6 | 4.3 | 0.01 | 0.01 | 0.01 | 88 | 1017.1 |
| 20260831021554 | 67 | 298 | 2.6 | 6.1 | 0.01 | 0.01 | 0.01 | 86 | 1017.2 |
| 20260831020049 | 67 | 256 | 1.7 | 7.0 | 0.01 | 0.01 | 0.01 | 83 | 1016.7 |
| 20260831014547 | 67 | 294 | 3.5 | 7.8 | 0.00 | 0.00 | 0.00 | 80 | 1017.0 |
| 20260831013107 | 68 | 285 | 3.5 | 7.0 | 0.00 | 0.00 | 0.00 | 76 | 1016.7 |
| 20260831011556 | 68 | 306 | 2.6 | 5.2 | 0.00 | 0.00 | 0.00 | 73 | 1016.5 |
| 20260831010116 | 69 | 284 | 1.7 | 4.3 | 0.00 | 0.00 | 0.00 | 72 | 1016.2 |
| 20260831004549 | 68 | 306 | 1.7 | 3.5 | 0.00 | 0.00 | 0.00 | 73 | 1015.9 |
| 20260831003056 | 68 | 0 | 0.0 | 2.6 | 0.00 | 0.00 | 0.00 | 73 | 1015.5 |
| 20260831001552 | 69 | 339 | 1.7 | 4.3 | 0.00 | 0.00 | 0.00 | 72 | 1015.7 |
| 20260831000110 | 69 | 0 | 0.0 | 1.7 | 0.00 | 0.00 | 0.00 | 69 | 1015.2 |
| 20260830234559 | 69 | 305 | 0.0 | 2.6 | 0.00 | 0.00 | 0.00 | 71 | 1015.1 |
| 20260830233051 | 69 | 244 | 0.0 | 2.6 | 0.00 | 0.00 | 0.00 | 69 | 1015.0 |
| 20260830231557 | 70 | 0 | 0.0 | 1.7 | 0.00 | 0.00 | 0.00 | 68 | 1015.2 |
| 20260830230054 | 70 | 0 | 0.0 | 0.0 | 0.00 | 0.00 | 0.00 | 69 | 1015.2 |
| 20260830224555 | 72 | 0 | 0.0 | 0.0 | 0.00 | 0.00 | 0.00 | 67 | 1015.2 |
| 20260830223128 | 72 | 0 | 0.0 | 0.9 | 0.00 | 0.00 | 0.00 | 61 | 1015.4 |
| 20260830221553 | 73 | 0 | 0.0 | 0.9 | 0.00 | 0.00 | 0.00 | 61 | 1015.6 |
| 20260830220107 | 73 | 244 | 0.0 | 0.9 | 0.00 | 0.00 | 0.00 | 58 | 1015.5 |
| 20260830214603 | 73 | 244 | 1.7 | 5.2 | 0.00 | 0.00 | 0.00 | 57 | 1015.8 |
| 20260830213056 | 73 | 315 | 1.7 | 7.0 | 0.00 | 0.00 | 0.00 | 58 | 1015.8 |
| 20260830211549 | 73 | 327 | 2.6 | 7.8 | 0.00 | 0.00 | 0.00 | 58 | 1015.9 |
| 20260830210049 | 73 | 265 | 3.5 | 7.0 | 0.00 | 0.00 | 0.00 | 58 | 1016.1 |
| 20260830204547 | 73 | 292 | 1.7 | 7.8 | 0.00 | 0.00 | 0.00 | 58 | 1016.2 |
| 20260830203055 | 73 | 277 | 1.7 | 6.1 | 0.00 | 0.00 | 0.00 | 58 | 1016.1 |
| 20260830201552 | 74 | 261 | 1.7 | 5.2 | 0.00 | 0.00 | 0.00 | 59 | 1016.4 |
| 20260830200103 | 73 | 236 | 0.9 | 4.3 | 0.00 | 0.00 | 0.00 | 60 | 1016.5 |
| 20260830194608 | 73 | 275 | 2.6 | 5.2 | 0.00 | 0.00 | 0.00 | 61 | 1016.6 |
| 20260830193103 | 73 | 239 | 3.5 | 7.8 | 0.00 | 0.00 | 0.00 | 58 | 1016.9 |
| 20260830191551 | 73 | 223 | 2.6 | 6.1 | 0.00 | 0.00 | 0.00 | 62 | 1017.0 |
| 20260830190105 | 73 | 225 | 2.6 | 7.0 | 0.00 | 0.00 | 0.00 | 60 | 1017.2 |
| 20260830184608 | 73 | 263 | 3.5 | 8.7 | 0.00 | 0.00 | 0.00 | 61 | 1017.5 |
| 20260830183100 | 73 | 264 | 1.7 | 6.1 | 0.00 | 0.00 | 0.00 | 63 | 1017.4 |
| 20260830181549 | 72 | 264 | 3.5 | 8.7 | 0.00 | 0.00 | 0.00 | 64 | 1017.6 |
| 20260830180103 | 72 | 258 | 3.5 | 8.7 | 0.00 | 0.00 | 0.00 | 63 | 1017.9 |
| 20260830174605 | 72 | 283 | 3.5 | 10.4 | 0.00 | 0.00 | 0.00 | 64 | 1018.0 |
| 20260830173107 | 72 | 280 | 3.5 | 7.8 | 0.00 | 0.00 | 0.00 | 65 | 1018.1 |
| 20260830171621 | 72 | 241 | 3.5 | 7.8 | 0.00 | 0.00 | 0.00 | 64 | 1018.0 |
| 20260830170103 | 72 | 271 | 2.6 | 7.0 | 0.00 | 0.00 | 0.00 | 63 | 1017.9 |
| 20260830164557 | 72 | 271 | 1.7 | 10.4 | 0.00 | 0.00 | 0.00 | 60 | 1017.6 |